Torna al catalogo

FENGYUN 1C DEB

AttivoSSO
NORAD 30182·DEBRIS·🇨🇳 China

Lanciato May 10, 1999 da Taiyuan Satellite Launch Center

Loading…

Prossimi Passaggi (prossime 24 ore)

TLE

AggiornatoSource: Space-Track

Epoca: Sep 13, 2026, 10:17 UTC

1 30182U 99025UP  26256.42885441  .00000275  00000-0  22550-3 0  9997
2 30182  99.0285 307.7444 0074405 349.3378  23.5750 13.96561999  1310

Traccia FENGYUN 1C DEB in tempo reale con AllMySat

Download on the App Store